www.pogodaiklimat.ru

Погода и климат >> Архив погоды >> Индия >> Махараштра >> Вардха


ПОГОДА в Вардхе

  • Прогноз погоды в Вардхе
  • Монитор погоды в Вардхе

АРХИВ ПОГОДЫ в Вардхе

Время (UTC), дата Ветер
(напр.,м/с)
 
Видим.   Явления Облачность Т
(С)
Тd
(С)
f
(%)
Тe
(С)
Тes
(С)
Комфортность P
(гПа)
Po
(гПа)
Тmin
(С)
Tmax
(С)
R
(мм)
R24
(мм)
S
(см)
03 12.08 З 1 2000 м 3/0
[Ac trans]
+26.0 +24.3 90 +36 +44 очень
душно
1005.1 973.1 +24.2
06 12.08 З 1 4000 м 4/0
[Ac trans]
+31.4 +24.9 68 +45 +63 опасность
перегрева
1003.0 971.6
09 12.08 З 2 4000 м 6/0
[Ac trans Ci sp]
+32.4 +23.2 58 +43 +54 опасность
перегрева
1001.2 970.0
12 12.08 З 2 4000 м 9/0 600 м
[Ac trans Ci fib]
+31.2 +23.7 64 +42 +43 опасность
перегрева
1000.0 968.7 +33.0
03 13.08 З 1 2000 м 10/5 600 м
[Frnb As op]
+26.5 +24.1 87 +37 +38 очень
душно
1002.5 970.7 +25.5
06 13.08 З 3 2000 м 10/5 600 м
[Frnb As op]
+24.5 +23.7 95 +33 +35 очень
душно
1000.6 968.6 9
09 13.08 З 3 2000 м 10/5 600 м
[Frnb As op]
+25.0 +23.5 91 +34 +35 очень
душно
1003.9 971.9 10
12 13.08 З 2 2000 м 10/5 600 м
[Frnb As op]
+25.2 +23.7 91 +34 +34 очень
душно
1001.4 969.5 +27.0 10
03 14.08 З 1 2000 м 10/5 600 м
[Frnb As op]
+24.8 +24.2 96 +34 +35 очень
душно
1004.5 972.4 +23.4 14
06 14.08 З 2 2000 м 10/5 600 м
[Frnb As op]
+27.2 +24.9 87 +39 +41 очень
душно
1004.6 972.8
09 14.08 З 3 2000 м 10/5 600 м
[Frnb As op]
+28.0 +24.3 80 +39 +40 очень
душно
1003.4 971.7
12 14.08 З 4 2000 м 10/5 600 м
[Frnb As op]
+27.5 +24.5 84 +39 +39 очень
душно
1001.1 969.4 +28.0
03 15.08 З 1 2000 м 1/0
[Ac trans]
+25.5 +23.9 91 +35 +42 очень
душно
1005.4 973.4 +24.4
06 15.08 З 1 4000 м 9/0
[Ac trans]
+30.2 +23.9 69 +42 +53 опасность
перегрева
1006.0 974.4
09 15.08 З 2 4000 м 4/0
[Ac trans]
+31.0 +23.8 66 +43 +54 опасность
перегрева
1005.2 973.7
12 15.08 З 2 4000 м 4/0
[Ac trans]
+30.2 +24.8 73 +43 +44 опасность
перегрева
1003.0 971.5 +31.6
03 16.08 З 2 2000 м ясно +26.2 +23.6 86 +36 +43 очень
душно
1006.5 974.5 +24.1 1
06 16.08 З 2 4000 м 6/0
[Ac trans]
+30.2 +23.9 69 +42 +55 опасность
перегрева
1005.3 973.8
09 16.08 З 3 4000 м 4/0
[Ac trans]
+32.1 +24.0 62 +44 +54 опасность
перегрева
1004.3 973.0
12 16.08 З 1 4000 м 1/0
[Ac trans]
+32.0 +24.0 63 +44 +46 опасность
перегрева
1002.2 970.9 +33.0
03 17.08 З 1 2000 м 1/0
[Ci fib]
+25.4 +23.9 91 +35 +43 очень
душно
1006.3 974.2 +24.0 2
06 17.08 З 1 4000 м 4/0
[Ac trans]
+29.8 +23.4 69 +40 +59 опасность
солнечного
удара
1007.0 975.4
09 17.08 З 1 4000 м 3/0
[Ac trans]
+30.0 +24.0 70 +41 +56 опасность
перегрева
1005.9 974.3
12 17.08 штиль 0 4000 м ясно +33.0 +23.2 56 +43 +45 опасность
перегрева
1002.7 971.5 +33.6
03 18.08 З 1 2000 м 1/0
[Ac trans]
+27.4 +24.2 83 +38 +47 очень
душно
1008.2 976.3 +24.8
06 18.08 З 1 4000 м 5/0
[Ac trans]
+30.2 +23.2 66 +40 +58 опасность
солнечного
удара
1006.9 975.3
09 18.08 З 3 4000 м 6/0
[Ac trans Ci fib]
+32.9 +23.6 58 +44 +53 опасность
перегрева
1005.6 974.3
12 18.08 З 3 4000 м 5/0
[Ac trans Ci fib]
+33.0 +23.5 58 +44 +45 опасность
перегрева
1003.2 972.0 +33.5

 

Местоположение метеостанции Вардха (Махараштра, Индия): широта 20.67 долгота 78.58 высота над уровнем моря 283 м.

В архиве по умолчанию представлена погода в Вардхе за последнюю неделю. Архивные данные за месяц целиком и за предыдущие месяцы, начиная с января 2011 года, Вы можете получить, выбрав интересующий диапазон дат из раскрывающегося списка и нажав кнопку "Ввод!".


*Определитесь, кто Вы:
робот инопланетянин человек

Внимание! Время в таблицах - всемирное. Для получения местного времени необходимо прибавить поправку, которая равна 5.5 ч.

Смотрите также архив погоды в соседних городах и на ближайших метеорологических станциях:

Погода в Яватмале (Махараштра, Индия) (54 км)
Погода в Нагпуре (Махараштра, Индия) (68 км)
Погода в Амравати (Махараштра, Индия) (88 км)
Погода в Чандрапуре (Махараштра, Индия) (108 км)
Погода в Адилабаде (Телингана, Индия) (114 км)
Погода в Брамапури (Махараштра, Индия) (132 км)
Погода в Бетуле (Мадхья-Прадеш, Индия) (150 км)
Погода в Аколе (Махараштра, Индия) (161 км)
Погода в Вашиме (Махараштра, Индия) (163 км)
Погода в Чхиндваре (Мадхья-Прадеш, Индия) (165 км)

Пояснения к столбцам:

Ветер - указаны скорость ветра в м/с - средняя за 10 мин, порывы в срок и между сроками (в фигурных скобках) и направление, откуда дует ветер: С - северный, СВ - северо-восточный, В - восточный, ЮВ - юго-восточный, Ю - южный, ЮЗ - юго-западный, З - западный, СЗ - северо-западный.
Видимость - горизонтальная дальность видимости в метрах или километрах. При видимости от 1 до 10 км при отсутствии осадков обычно наблюдается дымка, при ухудшении видимости до 1 км и менее - туман. В сухую погоду видимость может ухудшаться дымом, пылью или мглою.
Явления - указаны атмосферные явления, наблюдавшиеся в срок или в последний час перед сроком; фигурными скобками обозначены явления, наблюдавшиеся между сроками (за 1-3 часа до срока); квадратными скобками обозначены град или гололедные отложения с указанием их диаметра в мм.
Облачность - указаны через наклонную черту общая и нижняя облачность в баллах и высота нижней границы облаков в метрах; квадратными скобками обозначены формы облаков: Ci - перистые, Cs - перисто-слоистые, Cc - перисто-кучевые, Ac - высококучевые, As - высокослоистые, Sc - слоисто-кучевые, Ns - слоисто-дождевые, Cu - кучевые, Cb - кучево-дождевые. Подробнее классификацию облаков см. в Атласе облаков (PDF).
T - Температура воздуха - температура, измеренная на высоте 2 м над землей.
Td - Температура точки росы - температура, при понижении до которой содержащийся в воздухе водяной пар достигнет насыщения.
f - Относительная влажность воздуха - влажноcть воздуха, измеренная на высоте 2 м над землей.
Te - Эффективная температура - температура, которую ощущает одетый по сезону человек в тени. Характеристика душности погоды. При расчете учитывается влияние влажности воздуха и скорости ветра на теплоощущения человека.
Tes - Эффективная температура на солнце - температура, которую ощущает человек, с поправкой на солнечный нагрев. Характеристика знойности погоды. Зависит от высоты солнца над горизонтом, облачности и скорости ветра. Ночью, в пасмурную погоду, а также при ветре 12 м/с и более поправка равна нулю.
P - Атмосферное давление - приведенное к уровню моря атмосферное давление.
Po - Атмосферное давление - измеренное на уровне метеостанции атмосферное давление.
Tmin - Минимальная температура - минимум температуры воздуха на высоте 2 м над землей.
Tmax - Максимальная температура - максимум температуры воздуха на высоте 2 м над землей.
R - Количество осадков - Количество выпавших осадков за период времени, мм. При наведении курсора мыши на число - период времени, за который выпало указанное количество осадков.
R24 - Количество осадков - Количество выпавших осадков за 24 часа, мм.
S - Снежный покров - Высота снежного покрова, см. При наведении курсора мыши на число - состояние снежного покрова и степень покрытия местности в баллах.